User: anonymous   Login
Location: Mount Graham
(32.7016°N, 109.8912°W)
Time: 19:18:18
(UTC-07:00)
Language:

Cosmos 1340 - Orbit

View from above orbital plane
View from above orbital plane
View from above satellite
View from above satellite

Ground track
Ground track

The orbit data is extracted from the following two-line orbital elements,

1 13067U 82013A   16147.19246263  .00001091  00000-0  51787-4 0  9996
2 13067  81.1882 225.2148 0004047  49.8513 340.1232 15.18448123869078
Epoch (UTC): 26 May 2016 04:37:08
Eccentricity: 0.0004047
inclination: 81.1882°
perigee height: 508 km
apogee height: 513 km
right ascension of ascending node: 225.2148°
argument of perigee: 49.8513°
revolutions per day: 15.18448123
mean anomaly at epoch: 340.1232°
orbit number at epoch: 86907

The dashed part of the orbit path shows where the satellite is in the earth's shadow,  

DLR